This is the latest recevied weather packets stored in our database for station/object DW6201. If no packets are shown the sender has not sent any weather packets the latest 1 day(s).
| Time | Temp. | Humidity | Pressure | Rain* | Wind** | Luminosity | Snow |
|---|---|---|---|---|---|---|---|
| 1778032500 | 7.78° C | 47% | 1013.9 hPa | 0 mm | 0.45 m/s, 342° | - | - |
| 1778032200 | 7.78° C | 46% | 1013.9 hPa | 0 mm | 0.89 m/s, 350° | - | - |
| 1778031901 | 8.33° C | 46% | 1013.9 hPa | 0 mm | 0 m/s | - | - |
| 1778031601 | 8.33° C | 45% | 1013.9 hPa | 0 mm | 0 m/s | - | - |
| 1778031300 | 8.33° C | 45% | 1013.9 hPa | 0 mm | 0 m/s | - | - |
| 1778031001 | 8.33° C | 44% | 1013.5 hPa | 0 mm | 0.45 m/s, 323° | - | - |
| 1778030701 | 8.33° C | 44% | 1013.5 hPa | 0 mm | 0 m/s | - | - |
| 1778030401 | 8.33° C | 44% | 1013.5 hPa | 0 mm | 0 m/s | - | - |
| 1778030100 | 8.33° C | 44% | 1013.5 hPa | 0 mm | 0 m/s | - | - |
| 1778029801 | 8.33° C | 44% | 1013.5 hPa | 0 mm | 0 m/s | - | - |
| 1778029500 | 8.33° C | 44% | 1013.5 hPa | 0 mm | 0.45 m/s, 342° | - | - |
| 1778029201 | 8.89° C | 44% | 1013.5 hPa | 0 mm | 1.34 m/s, 331° | - | - |
| 1778028900 | 8.89° C | 43% | 1013.5 hPa | 0 mm | 0.45 m/s, 331° | - | - |
| 1778028601 | 8.89° C | 43% | 1013.2 hPa | 0 mm | 0.89 m/s, 333° | - | - |
| 1778028300 | 8.89° C | 43% | 1013.5 hPa | 0 mm | 0 m/s | - | - |
| 1778028001 | 8.89° C | 42% | 1013.2 hPa | 0 mm | 0.45 m/s, 323° | - | - |
| 1778027701 | 8.89° C | 42% | 1013.2 hPa | 0 mm | 1.34 m/s, 309° | - | - |
| 1778027401 | 8.89° C | 42% | 1013.2 hPa | 0 mm | 0.45 m/s, 331° | - | - |
| 1778027101 | 8.89° C | 43% | 1013.2 hPa | 0 mm | 0 m/s | - | - |
| 1778026801 | 8.89° C | 42% | 1012.9 hPa | 0 mm | 1.34 m/s, 318° | - | - |
| 1778026501 | 8.89° C | 42% | 1013.2 hPa | 0 mm | 1.34 m/s, 287° | - | - |
| 1778026201 | 9.44° C | 42% | 1012.9 hPa | 0 mm | 0 m/s | - | - |
| 1778025901 | 9.44° C | 42% | 1012.9 hPa | 0 mm | 0 m/s | - | - |
| 1778025601 | 9.44° C | 42% | 1012.9 hPa | 0 mm | 0.89 m/s, 355° | - | - |
| 1778025300 | 9.44° C | 41% | 1012.9 hPa | 0 mm | 0.89 m/s, 319° | - | - |
* Rain latest hour (hover to see other rain measurements)
** Current wind speed in m/s (hover to see current wind gust speed)